Theta_e
330 334 335 332 334 336 332 328 325 328 330 324 328 336 338 336 333 344 349 342 353 359 352 358 363 367 366 359 365 364 356 358 358 360 364 360 360 365 365 365 366 368 363 352 349 351 352 353 353 352 352 352 352 351 349 349 348 348 348 350 352 352 352 354 355 356 356 356 353 349 349 352 352 351 352 353 352 352 353 352 351 352 352 349 349 350
334 330 333 335 334 333 329 328 327 328 327 322 323 328 328 330 333 337 341 346 357 353 344 355 363 361 362 361 367 370 356 352 361 363 362 361 364 369 366 363 367 367 361 356 353 350 350 352 352 353 354 353 353 352 351 351 350 350 351 353 353 352 352 353 355 355 355 355 353 348 348 351 351 352 353 354 352 352 352 352 352 353 352 350 349 349
336 331 334 335 331 329 328 328 327 327 325 322 321 320 318 323 332 330 338 362 366 353 348 356 358 355 359 361 360 367 367 364 365 363 360 362 371 373 365 363 367 367 367 367 360 350 350 351 351 353 354 354 353 353 353 353 352 352 353 353 353 351 352 352 352 353 353 353 352 350 351 352 352 352 353 353 352 352 352 352 352 352 350 349 349 350
326 333 336 331 327 328 329 327 325 323 323 322 320 317 314 318 329 325 332 360 363 353 356 360 358 358 366 370 362 361 368 367 363 362 362 365 370 367 361 361 364 367 370 369 363 354 350 350 350 351 352 354 354 353 353 353 354 354 353 353 353 352 351 351 351 351 351 351 351 351 352 352 351 350 351 351 352 352 352 351 351 351 350 349 348 350
327 333 332 326 327 329 329 325 324 323 320 320 321 320 316 318 331 333 337 357 361 351 356 359 350 349 366 375 366 361 366 365 362 363 365 364 363 359 359 361 362 365 364 363 360 353 349 349 350 350 350 352 352 352 353 353 354 354 354 354 353 353 352 351 351 350 351 351 352 352 351 350 350 350 350 351 351 351 351 352 352 352 351 350 349 349
331 329 325 326 328 327 327 325 324 323 317 318 323 322 326 335 345 348 349 357 353 340 345 352 335 337 364 369 360 366 368 363 362 364 366 364 361 361 364 366 367 365 360 357 354 349 348 348 348 349 349 349 349 350 351 351 353 353 353 353 352 353 352 352 352 351 351 352 352 352 350 349 349 349 349 349 351 352 352 352 352 352 351 351 351 350
329 327 324 325 328 326 324 323 322 323 318 315 318 325 344 356 355 352 348 344 339 332 340 350 334 333 353 354 353 368 370 363 362 361 362 361 360 361 363 367 369 365 357 355 352 349 349 347 347 348 347 348 349 349 349 349 351 351 351 352 351 351 351 352 352 352 352 353 353 351 350 350 349 348 348 348 351 353 352 352 350 350 350 350 350 350
327 327 327 325 327 325 322 321 322 325 321 314 319 339 358 362 355 351 344 341 342 338 341 355 347 336 340 346 354 364 363 362 360 356 357 358 359 361 362 364 362 356 354 355 353 350 347 346 347 348 348 349 349 350 350 350 350 350 350 350 350 350 350 351 352 352 353 353 352 351 351 350 349 349 349 349 351 352 352 351 350 350 350 349 349 349
326 324 326 325 324 322 322 324 325 323 321 318 322 339 352 353 350 345 340 342 344 337 334 344 346 336 340 356 365 362 356 355 356 354 354 355 359 363 365 364 357 353 353 354 353 349 346 345 347 348 349 350 350 351 351 351 351 350 350 351 350 351 350 351 352 352 352 352 351 351 350 350 350 349 350 351 351 352 351 350 350 350 351 350 349 349
325 325 325 321 321 325 326 328 326 322 321 321 320 327 333 334 338 340 341 342 338 335 331 334 340 336 338 352 358 353 352 358 362 360 355 354 357 362 366 363 357 355 355 354 350 346 345 347 347 347 348 349 350 351 352 353 353 351 352 351 351 351 351 351 352 352 352 352 351 350 350 349 349 349 350 351 351 350 349 349 349 349 349 350 350 349
323 327 330 326 324 326 326 326 323 321 321 319 320 325 325 329 337 341 350 346 332 331 333 332 339 339 334 344 354 351 352 363 367 359 355 357 359 360 362 359 356 354 354 354 350 346 346 348 347 346 346 347 349 352 354 354 353 353 353 352 352 352 352 352 352 353 353 353 352 351 350 349 349 350 350 350 350 349 349 348 349 349 348 350 351 351
324 324 328 331 329 325 322 323 321 322 321 321 330 327 317 324 330 330 341 343 327 327 333 333 338 336 330 337 349 354 355 357 361 358 358 361 361 359 357 354 352 350 350 351 351 348 346 347 347 346 345 345 347 349 351 352 353 353 352 352 352 350 350 350 349 350 350 350 351 350 350 349 350 350 350 350 350 349 349 349 349 349 349 350 352 352
324 323 325 325 328 326 321 321 324 327 328 328 336 330 320 323 324 321 326 329 327 328 331 333 335 333 333 338 345 354 353 349 353 357 359 360 359 356 353 351 351 350 348 349 350 347 346 347 347 347 346 345 345 346 346 347 348 349 349 348 348 347 347 347 347 348 348 347 348 348 349 349 349 350 350 350 350 350 350 351 351 350 349 350 351 352
319 326 327 322 324 325 322 321 320 324 329 326 328 324 320 323 320 316 319 324 331 333 331 334 333 328 333 340 347 353 351 348 351 354 356 357 356 353 351 351 353 352 350 348 348 347 346 346 346 346 346 345 345 346 345 345 346 346 346 346 346 346 347 348 349 351 350 347 347 347 347 348 348 349 349 349 350 351 351 351 352 352 351 351 351 351
313 317 324 322 320 322 325 326 323 327 327 323 327 324 317 319 317 313 320 330 334 334 334 335 330 328 334 339 345 352 349 348 350 350 352 353 351 351 351 353 355 353 351 348 347 347 346 346 346 346 346 346 346 347 346 346 346 346 346 346 346 347 348 349 350 351 349 347 346 346 347 348 349 350 350 350 351 351 351 352 352 352 352 352 351 351
312 315 325 326 322 322 326 326 328 332 324 319 326 325 316 320 324 319 324 334 334 333 335 334 332 337 345 346 348 354 353 353 352 351 355 356 354 355 355 354 353 351 350 348 347 347 346 346 346 346 346 347 347 347 347 347 346 346 346 346 346 348 350 350 349 349 347 347 346 347 347 348 349 350 351 351 351 351 351 352 352 352 352 352 351 349
312 317 329 331 327 327 326 327 329 325 323 326 325 321 319 325 335 329 325 332 334 330 329 332 339 349 351 348 351 358 359 358 357 357 359 359 358 359 357 354 351 350 349 348 348 347 346 345 346 346 347 347 347 347 347 346 345 346 346 346 347 349 351 351 350 349 347 347 346 346 346 347 348 349 350 350 350 350 350 350 350 351 351 350 349 347
315 317 329 334 331 330 328 330 334 328 327 331 322 320 324 326 335 336 329 332 334 330 331 335 343 350 347 344 351 361 363 361 361 362 360 359 362 362 357 352 350 350 349 349 348 346 345 345 346 346 346 347 347 347 346 345 344 345 345 345 347 349 350 350 350 349 347 347 347 346 346 346 347 349 349 349 349 349 349 349 350 350 349 348 347 347
319 315 324 335 331 332 339 336 333 332 332 330 324 326 326 321 322 324 324 329 329 330 338 339 340 346 346 346 353 358 362 365 364 362 360 361 364 362 356 352 351 350 350 350 350 349 345 344 344 345 345 345 345 345 344 342 342 343 343 342 344 345 346 347 348 348 347 346 347 347 347 347 348 349 349 349 349 349 349 349 349 349 348 347 347 347
325 316 318 333 333 329 341 339 328 330 334 332 331 331 331 329 324 320 322 328 334 338 340 336 334 341 348 353 356 356 359 364 363 362 363 362 362 359 354 353 352 352 352 350 351 350 345 343 344 344 343 343 343 342 341 340 340 342 341 339 339 339 340 341 342 344 345 345 345 344 344 344 344 345 346 347 348 348 348 348 348 348 347 347 347 347
331 321 317 334 341 328 332 338 331 330 330 329 330 327 327 328 323 322 323 326 338 347 343 336 334 341 351 353 353 355 358 360 360 363 365 361 358 355 352 353 354 353 351 350 351 349 344 343 344 343 342 342 341 341 340 338 337 338 339 339 337 335 335 336 337 339 341 343 343 341 339 339 339 339 339 341 343 346 347 348 348 348 348 349 349 348
326 328 324 328 331 325 332 340 335 332 330 332 333 326 326 327 322 324 322 321 334 343 342 340 337 341 352 353 351 355 358 360 360 362 364 360 356 354 353 354 354 353 351 350 350 346 342 343 343 343 342 340 341 341 339 337 335 334 335 336 337 336 335 334 334 335 337 340 342 341 340 338 338 337 336 335 336 339 342 346 347 347 348 349 350 350
342 347 335 326 329 332 333 335 331 328 329 334 334 330 331 331 328 326 323 322 327 331 335 337 333 339 352 355 359 359 359 361 360 359 362 358 354 354 355 353 351 352 352 352 349 343 342 344 343 342 340 338 339 341 340 338 335 334 333 334 335 337 336 334 331 330 332 335 339 341 340 339 338 336 335 334 333 334 336 340 344 346 347 347 347 349
349 348 333 331 352 358 343 341 339 333 332 333 333 334 332 328 331 333 333 334 329 327 331 327 326 339 351 355 362 361 359 361 358 357 360 357 355 356 354 353 352 352 353 352 348 342 341 344 343 341 337 336 337 339 340 341 338 336 334 332 333 335 337 335 330 326 326 328 332 336 338 339 339 336 334 333 333 333 333 335 340 344 345 345 345 346
331 338 334 329 337 340 335 340 339 334 336 335 332 336 334 331 335 334 333 333 327 327 332 325 327 344 351 353 360 360 360 360 356 354 355 355 357 355 353 354 352 352 352 352 351 346 342 341 342 340 337 335 335 335 338 340 340 338 335 333 333 334 336 336 331 328 326 326 329 332 334 336 338 337 334 333 333 334 333 334 335 340 343 344 345 345
337 344 344 332 326 325 328 332 329 326 333 335 335 340 340 336 332 329 328 327 323 326 330 326 334 349 353 356 361 360 360 360 357 355 353 353 354 353 353 353 351 352 352 353 355 351 344 340 339 338 336 335 334 334 335 336 337 338 337 335 334 334 335 335 332 330 329 329 331 333 333 334 337 337 335 333 333 333 334 334 335 337 339 341 342 343
353 346 353 358 343 334 340 343 335 331 333 334 338 344 347 345 338 331 326 324 328 333 332 334 345 353 356 360 362 361 360 360 359 357 355 354 353 352 353 351 350 353 352 352 355 352 348 344 339 336 335 335 334 333 333 334 335 336 336 337 335 333 333 332 331 331 331 332 332 333 334 334 335 335 334 333 332 332 333 334 335 336 337 338 339 340
355 333 341 355 338 330 343 344 337 339 336 336 342 345 346 350 351 344 331 326 330 328 327 339 352 355 356 359 361 361 359 358 359 357 355 355 353 350 350 350 350 352 351 352 353 352 354 351 340 334 335 335 335 334 332 332 333 333 335 337 335 333 331 331 332 333 333 333 334 334 334 335 334 334 333 332 331 331 331 333 335 336 335 336 336 337
354 329 329 333 326 331 341 337 338 345 341 341 347 348 348 350 354 355 347 343 338 326 327 344 354 355 356 356 356 357 356 356 356 354 350 348 348 347 348 349 351 353 353 352 351 351 352 347 338 334 334 335 335 335 333 332 333 334 334 334 333 331 332 333 333 333 333 334 334 335 334 334 334 333 333 332 331 331 331 332 334 335 335 335 335 336
343 333 334 334 329 332 338 338 342 346 344 345 347 347 350 350 350 352 351 353 351 342 343 352 354 353 351 349 349 349 349 351 349 345 344 346 347 347 347 348 348 348 349 348 348 349 345 338 334 334 335 335 334 335 334 333 333 332 331 330 329 331 332 333 333 332 332 334 334 335 334 333 333 333 333 332 332 332 332 332 333 334 334 335 334 335
332 331 342 347 333 325 331 341 345 346 347 348 347 347 351 351 351 353 352 355 356 350 348 351 352 350 345 341 342 341 342 346 344 342 344 345 345 345 344 345 346 345 347 346 346 349 345 336 333 335 335 334 334 333 332 331 330 328 328 328 329 330 332 332 332 331 332 333 334 334 334 333 333 333 333 333 332 332 332 333 333 333 333 334 334 335
337 331 336 344 331 321 326 334 340 348 351 350 348 347 349 351 351 350 349 351 352 349 349 352 351 348 343 339 340 340 339 340 341 343 345 344 344 342 338 339 341 342 347 347 347 353 352 339 332 333 333 332 331 330 328 328 329 328 329 329 329 330 331 331 331 331 331 333 333 333 334 333 334 334 333 332 332 332 332 333 333 333 333 333 334 334
346 334 328 332 325 318 323 330 338 348 350 349 349 345 346 351 350 348 348 346 347 349 351 352 349 345 343 341 341 341 338 337 338 338 339 339 339 335 332 333 337 339 343 346 347 348 344 335 330 331 331 330 329 328 328 329 329 329 329 329 329 330 330 330 330 330 331 332 332 333 333 333 334 333 332 331 331 331 331 331 332 332 333 332 332 333
352 345 333 333 323 314 324 340 345 348 348 346 346 343 344 346 345 347 346 340 342 347 348 346 345 342 341 340 339 338 337 337 336 333 332 332 331 330 330 333 337 338 339 342 342 336 331 329 330 330 329 328 328 328 329 329 330 330 330 330 330 330 330 330 330 330 331 332 332 333 333 333 333 332 332 331 330 330 329 330 330 331 332 332 332 332
355 349 338 338 328 319 334 346 338 340 350 348 342 343 344 342 342 344 343 338 339 344 344 344 343 340 339 337 336 336 337 335 334 335 334 332 330 331 332 334 335 336 336 338 337 332 328 329 329 328 327 328 328 328 329 329 330 330 330 329 330 329 329 329 330 330 332 332 332 333 333 333 332 331 331 330 329 329 330 330 330 331 331 332 332 332
349 345 340 336 324 319 335 341 329 331 345 344 341 344 342 342 346 350 349 342 337 339 342 342 341 339 339 337 335 336 337 335 337 341 339 335 336 338 338 338 338 336 334 333 332 330 329 328 327 327 328 328 328 328 329 329 330 330 330 330 329 329 329 330 330 331 332 332 332 332 331 331 331 331 330 329 329 329 329 330 331 331 331 332 332 332
341 343 343 334 324 325 337 341 334 333 337 338 340 339 335 338 342 348 350 344 336 337 338 336 337 338 338 338 338 338 339 342 349 349 340 336 341 342 339 338 336 333 330 328 328 328 329 328 328 328 328 327 328 329 329 330 330 330 329 329 329 330 330 331 331 332 332 331 331 329 329 329 329 330 330 329 329 329 329 330 330 331 331 332 332 331
334 339 340 331 328 336 344 343 339 337 339 343 344 337 333 334 336 342 351 347 339 338 335 333 336 337 337 340 340 339 340 345 351 349 342 341 342 337 333 332 329 327 327 327 327 328 328 328 327 327 327 328 329 330 330 330 330 330 330 330 330 331 331 331 331 331 330 330 329 328 328 328 328 328 328 328 328 328 329 330 330 330 330 331 331 331
336 343 348 339 335 341 346 344 343 341 341 346 347 338 333 332 334 342 351 349 343 337 334 335 339 339 340 342 340 339 340 340 344 348 346 344 338 332 331 330 326 325 327 327 328 328 327 327 328 327 328 329 329 330 330 330 330 330 331 331 330 330 330 330 329 329 328 328 328 327 327 327 326 327 327 327 327 327 328 329 329 329 329 329 330 330
349 353 352 345 344 348 348 344 342 340 339 340 342 339 333 331 335 342 347 347 343 336 333 337 340 341 343 343 342 344 343 338 342 345 339 332 328 325 326 326 324 324 327 327 328 328 327 328 328 328 329 329 329 330 330 330 330 330 330 330 329 329 329 328 328 328 327 327 327 327 326 326 326 326 326 326 326 327 328 329 328 328 328 328 329 329
354 355 349 347 349 351 350 342 336 337 338 335 334 335 333 331 337 344 346 345 341 334 332 336 337 337 339 341 342 341 336 334 336 335 330 327 326 324 323 325 325 326 327 327 328 328 328 329 329 329 328 329 329 329 329 329 328 328 329 328 327 326 326 326 326 326 327 327 327 326 326 326 326 325 325 325 326 327 328 328 328 328 328 328 328 328
342 341 343 348 345 343 347 344 336 336 337 332 329 331 333 336 342 345 342 339 337 333 332 333 334 334 336 337 337 334 332 332 332 328 327 327 326 325 324 325 326 327 327 328 328 328 329 328 329 329 328 328 328 327 327 327 326 327 326 325 325 324 322 322 322 323 325 325 325 325 324 324 324 324 324 325 326 327 327 327 327 327 327 328 328 327
336 334 337 340 336 338 347 344 336 337 336 330 330 334 336 337 343 343 336 334 335 334 332 332 332 334 335 333 332 332 332 331 329 326 326 326 324 324 325 325 325 326 326 327 327 327 328 328 328 329 327 326 326 326 326 326 325 324 323 322 321 321 320 320 321 321 322 324 324 324 323 321 322 322 324 326 326 326 326 326 326 327 327 327 328 327
333 336 341 338 334 340 348 342 338 341 337 330 333 339 337 334 338 342 338 334 333 332 333 334 331 330 332 331 331 332 330 329 328 327 327 327 324 323 324 325 325 325 326 326 326 327 327 327 327 328 326 324 324 325 325 324 322 321 321 320 319 319 318 319 319 319 321 323 324 323 321 320 321 322 324 325 325 324 325 325 325 326 326 327 327 328
331 334 339 337 333 336 343 341 340 342 335 329 331 334 332 331 335 340 338 334 331 331 332 332 329 328 330 329 330 332 329 327 328 328 328 327 323 323 325 325 325 326 325 326 326 326 326 326 326 326 325 322 322 323 324 322 319 319 319 319 318 318 317 317 318 319 321 322 323 322 320 320 322 323 324 324 324 324 324 325 325 325 326 326 327 327
332 332 337 340 333 332 336 335 335 336 332 329 329 329 329 332 335 336 335 332 332 332 331 330 329 330 330 329 330 331 329 329 329 328 328 326 323 323 325 325 324 326 325 325 326 325 325 325 325 324 323 320 319 320 322 321 318 318 318 318 317 317 317 317 318 319 320 321 322 320 319 320 322 323 322 322 323 324 324 324 325 325 326 326 326 326
337 334 337 340 336 336 340 335 331 333 332 330 330 329 329 332 334 335 334 330 329 331 331 329 328 327 327 329 332 333 331 330 330 329 329 327 324 324 325 325 325 325 325 325 325 324 324 324 324 322 321 319 318 318 319 319 317 317 317 317 316 317 317 317 318 319 319 320 320 319 319 321 322 322 321 321 322 323 323 323 323 324 325 326 325 325
339 336 336 339 338 339 338 332 329 331 330 331 333 331 329 330 331 330 328 325 324 326 325 323 324 325 326 328 330 332 331 330 330 330 329 327 325 324 324 325 325 324 324 325 324 323 322 322 321 321 320 318 316 314 315 316 316 316 317 316 317 318 318 317 318 319 319 319 319 319 320 321 320 320 320 321 322 322 322 322 322 323 324 325 324 324
339 340 336 336 336 335 333 330 329 330 328 328 329 329 328 329 329 328 326 324 325 328 327 325 323 323 325 325 324 328 332 330 326 327 327 325 323 324 325 325 324 324 324 324 323 321 319 318 319 320 320 316 313 312 313 314 313 314 316 317 317 317 318 317 317 318 318 318 318 319 320 320 319 319 319 320 321 321 320 320 321 322 323 323 323 322
341 340 333 333 336 338 339 335 331 334 333 327 325 327 327 326 328 330 330 328 330 331 331 331 328 324 324 324 323 326 330 329 324 323 325 325 324 324 325 324 324 324 324 323 323 321 318 316 317 319 319 316 314 314 315 315 312 312 314 316 317 317 317 317 316 317 317 317 318 319 319 318 318 318 318 320 320 320 319 319 319 321 322 321 320 320
339 337 336 342 345 342 340 336 333 336 335 327 326 329 327 324 329 334 333 330 330 327 326 330 332 330 327 325 324 325 326 326 325 324 324 324 324 325 324 323 323 324 323 322 322 321 318 315 315 317 319 317 315 314 315 316 314 312 312 315 316 316 316 316 316 316 316 316 318 318 317 317 317 317 318 318 318 318 319 319 319 320 320 318 317 319
Wind_Speed
4 5 4 3 5 7 6 3 6 7 7 5 3 5 4 3 2 4 3 3 4 6 1 3 3 3 5 4 5 4 2 4 3 3 3 3 3 4 4 4 5 4 6 7 8 7 5 5 7 10 13 15 16 15 14 14 15 17 17 19 21 22 22 22 22 20 19 18 18 20 21 24 23 20 21 22 20 21 23 23 23 25 25 22 22 22
5 3 5 7 8 8 5 1 5 5 4 3 2 4 1 3 2 4 2 3 2 4 2 2 4 4 6 5 5 3 3 3 3 4 3 3 3 3 1 3 5 4 5 6 9 8 5 2 1 5 9 12 13 12 12 15 16 17 17 19 20 19 20 23 25 23 20 17 14 14 19 22 21 20 22 21 19 21 21 22 23 24 24 20 18 17
5 3 9 8 5 3 3 2 3 4 4 2 1 4 1 3 2 3 3 5 4 4 1 2 5 3 6 5 4 5 2 1 3 2 2 3 2 2 1 2 4 4 5 5 7 9 10 7 3 1 5 8 10 10 12 15 16 16 17 18 18 18 19 22 24 23 24 24 22 22 25 25 23 20 19 18 18 18 19 21 21 21 21 20 17 15
2 5 8 4 2 3 5 4 3 3 3 2 2 4 2 3 3 0 2 4 4 3 3 5 4 2 5 5 4 5 3 2 4 2 3 3 3 1 1 0 3 3 5 6 6 9 11 10 7 4 2 5 8 9 11 14 16 17 18 18 17 17 19 21 22 24 26 27 26 24 23 22 21 18 15 15 16 18 19 21 20 17 18 19 17 16
6 8 5 2 4 1 2 4 3 4 1 3 4 5 3 3 3 3 2 2 5 5 3 6 4 4 4 4 4 5 4 4 5 4 5 5 3 3 3 3 3 3 3 5 6 7 9 10 8 6 5 4 5 7 9 13 16 18 18 18 18 17 19 20 22 25 26 25 25 23 21 19 20 19 17 16 18 20 22 21 19 17 16 17 17 17
8 7 2 3 4 4 1 3 1 5 1 3 3 6 8 7 6 7 6 4 5 3 1 4 4 4 5 3 3 5 5 5 5 5 6 6 5 5 4 4 4 4 5 5 6 6 7 8 7 7 7 7 5 5 8 10 13 16 17 17 18 18 19 20 22 24 25 24 23 22 20 18 17 16 14 13 16 17 18 18 17 17 17 16 16 18
5 3 3 3 4 7 4 3 3 6 4 2 3 6 9 10 10 10 8 4 3 2 2 3 5 2 5 4 3 5 5 5 5 6 6 5 5 5 4 4 4 6 6 6 6 5 6 7 8 9 9 9 7 5 4 6 9 12 14 15 17 17 18 18 19 22 23 22 20 18 18 17 16 13 11 13 15 15 13 14 14 15 15 15 16 17
2 5 7 6 5 6 5 4 4 6 5 1 3 7 10 11 11 10 8 5 3 4 1 4 4 3 2 3 4 3 4 5 5 5 6 5 5 5 4 4 5 7 6 6 6 6 6 8 9 10 10 8 7 4 2 3 6 9 11 13 14 15 15 15 17 19 20 18 15 14 15 16 15 13 13 14 14 13 12 12 12 13 14 14 15 15
1 2 4 4 5 4 3 6 6 7 2 4 5 7 7 8 8 6 5 4 2 4 1 5 3 4 3 5 4 3 4 2 4 2 5 5 5 5 4 5 6 6 6 5 5 6 7 10 11 10 8 6 5 5 4 3 5 7 8 9 10 11 12 12 13 15 17 15 13 14 16 15 15 13 13 13 13 12 11 10 9 9 11 12 13 13
3 3 3 2 1 4 6 6 7 7 1 2 7 7 7 6 6 5 5 4 4 4 3 5 2 4 3 5 3 3 3 3 5 2 2 3 4 4 4 5 6 5 5 5 5 5 7 9 10 9 8 6 5 5 4 3 4 5 7 9 10 10 11 12 12 12 14 14 14 16 16 17 18 17 15 15 14 12 11 9 8 7 7 7 9 11
5 3 2 3 4 6 6 4 5 6 2 4 7 8 8 7 6 5 4 4 5 2 4 5 1 4 1 5 2 1 2 4 4 2 1 3 4 4 4 4 4 4 4 4 4 5 7 8 9 9 9 8 7 5 4 2 4 6 7 9 9 10 10 11 12 12 12 14 15 16 16 16 18 18 17 15 12 9 8 8 6 5 5 6 8 9
7 4 1 3 3 4 2 1 1 1 2 5 5 5 6 4 5 5 5 4 4 2 5 5 2 5 2 4 3 3 5 4 4 5 5 6 5 3 3 4 3 4 4 4 4 4 6 7 9 9 9 9 9 7 6 5 5 5 5 7 7 8 8 7 9 10 11 12 13 15 15 14 15 15 14 11 8 5 4 5 6 6 6 6 7 7
7 4 3 5 3 4 3 1 3 5 5 5 4 5 5 3 4 3 3 2 1 4 3 3 2 2 1 5 4 6 7 5 4 4 6 7 6 4 3 3 3 4 5 5 4 3 4 5 7 9 9 9 9 9 9 9 8 7 6 7 8 7 7 6 7 7 8 9 9 10 11 11 11 11 10 8 6 3 1 3 4 5 4 4 3 3
5 5 7 6 2 2 4 3 1 3 3 4 3 3 3 3 2 1 2 0 1 3 3 4 2 1 3 3 3 5 6 3 1 4 6 7 7 4 3 4 4 5 5 4 4 3 3 5 6 8 8 9 10 12 14 14 13 12 11 10 9 8 8 8 7 4 3 5 7 8 9 9 9 10 9 7 7 6 5 5 5 5 5 5 4 5
1 4 5 2 1 1 2 4 5 4 3 2 3 4 3 3 3 2 3 3 2 2 3 4 1 2 2 3 2 3 3 3 4 6 7 7 5 4 4 5 4 5 4 4 3 3 3 4 5 6 8 9 10 13 17 17 16 16 16 15 13 12 11 8 5 3 3 2 3 6 7 8 9 9 7 6 7 8 9 10 10 10 10 9 10 10
2 4 6 5 4 1 2 2 4 5 3 1 2 4 1 2 4 3 3 4 4 1 2 3 1 2 3 3 3 3 3 4 5 6 8 7 4 4 5 5 4 4 4 4 4 3 3 4 5 6 8 9 11 14 17 18 18 18 18 18 17 14 12 9 7 7 7 6 4 3 4 5 5 5 5 6 7 8 9 10 11 12 13 14 14 13
2 3 7 6 4 3 2 1 2 3 1 1 3 2 3 3 7 5 2 1 3 3 1 1 2 3 3 3 3 4 4 3 4 6 7 5 4 5 5 3 3 3 3 4 3 3 4 6 7 8 9 11 13 16 17 18 19 19 19 19 18 16 14 13 13 12 10 7 5 4 4 5 8 10 10 10 9 9 9 10 10 11 13 13 13 13
2 2 6 4 4 2 1 1 3 3 3 3 2 3 3 3 5 5 3 3 4 2 1 2 2 3 2 2 1 2 2 2 2 4 6 5 5 5 4 3 3 3 3 3 3 3 5 7 8 8 9 11 12 15 16 18 19 19 20 20 20 18 17 17 17 17 16 14 11 9 8 9 12 13 14 14 12 11 10 11 12 12 13 12 12 12
3 1 7 3 1 6 5 5 5 5 3 4 4 4 3 3 1 2 3 1 1 1 2 3 2 3 3 3 4 6 7 6 4 4 5 5 4 4 3 2 3 3 3 3 3 3 4 6 7 8 8 9 11 13 15 17 18 20 21 21 20 19 18 19 19 19 19 19 18 17 17 17 18 18 18 17 16 15 13 12 12 12 13 12 12 12
3 2 5 4 3 4 6 5 2 4 5 5 3 2 2 3 3 2 2 2 3 2 2 2 3 3 5 5 8 10 9 8 6 4 5 5 4 3 2 2 2 2 2 2 2 2 4 5 5 6 7 8 9 12 14 17 18 19 20 20 20 19 18 19 20 21 21 21 21 21 21 22 22 22 21 21 20 19 18 16 13 12 12 11 11 12
2 3 2 5 4 3 2 0 4 2 2 3 3 2 2 2 2 2 2 2 4 4 2 1 1 5 6 4 8 11 8 7 7 6 5 4 4 3 2 2 1 0 0 2 2 3 4 5 4 4 5 6 8 10 13 16 17 17 18 19 19 19 19 20 21 21 21 20 20 21 22 22 23 23 23 23 22 21 20 19 16 14 13 12 11 11
2 2 2 2 4 2 3 4 4 4 3 3 2 2 2 2 2 3 1 2 2 4 4 4 2 6 5 2 5 9 8 6 6 6 5 4 4 3 2 1 1 1 2 2 2 3 4 5 4 4 5 5 7 10 13 15 16 17 17 17 17 18 19 19 20 20 20 20 19 19 20 20 21 22 23 23 23 22 21 20 19 17 16 14 13 12
3 3 3 0 1 3 7 6 1 3 4 3 2 2 3 2 3 5 2 3 1 2 2 4 1 6 5 2 1 5 7 6 5 5 5 4 3 3 1 1 2 2 2 2 2 3 4 4 4 4 5 5 7 9 11 13 14 15 16 15 15 16 16 18 19 19 19 19 18 17 17 18 19 20 22 23 23 23 22 20 19 18 17 15 15 14
2 4 4 1 4 4 5 6 4 2 3 3 3 2 1 1 2 5 4 3 3 2 2 3 1 5 4 4 4 6 6 6 5 4 5 4 3 2 2 2 3 3 2 2 3 4 4 3 3 3 5 7 8 9 9 10 11 12 13 14 14 14 14 15 17 19 19 19 17 17 16 16 17 18 21 22 23 23 22 21 19 18 17 17 16 16
1 1 4 3 4 5 5 7 6 5 3 2 2 4 4 3 3 3 2 3 1 3 4 4 3 5 3 3 5 7 7 7 5 4 4 4 3 2 2 3 3 3 3 3 4 4 4 2 2 2 3 5 7 9 9 8 8 9 10 11 12 12 12 12 13 15 16 16 15 15 16 16 15 17 19 20 21 22 22 22 20 18 17 17 18 18
3 2 3 5 3 2 2 2 3 3 3 2 3 6 6 4 2 1 1 3 0 3 4 4 4 4 3 3 6 6 6 6 4 3 4 3 3 3 3 3 3 3 3 4 4 4 4 3 3 3 3 4 5 7 8 8 8 8 8 9 11 12 11 10 11 12 13 13 13 13 14 15 15 16 18 19 20 20 20 20 20 19 18 18 18 19
4 3 2 6 6 6 6 5 5 1 2 3 5 7 7 5 2 2 3 2 3 2 2 4 4 3 1 2 5 5 5 5 4 3 3 2 2 3 3 3 3 3 3 4 4 4 4 4 4 4 3 4 5 6 7 8 8 8 8 8 10 12 11 11 11 12 12 11 12 12 13 14 15 17 19 20 20 20 19 19 18 18 18 18 18 19
5 3 1 5 4 2 6 2 2 4 5 2 4 7 8 8 6 6 3 2 2 2 2 6 2 6 4 4 5 5 4 5 4 4 3 3 2 2 2 3 3 4 4 4 4 5 5 4 5 5 5 5 6 6 9 10 9 9 9 7 9 10 11 11 12 13 13 13 12 12 13 14 15 17 19 20 21 21 21 20 19 18 18 18 19 19
7 2 0 4 5 3 2 3 6 6 5 4 6 7 8 9 10 7 3 3 1 2 3 2 4 5 2 2 4 4 4 4 4 2 2 2 3 3 3 4 4 5 5 5 5 5 4 4 6 7 7 7 8 9 11 12 10 9 9 8 9 11 11 10 11 13 14 14 14 14 14 15 15 15 17 19 20 21 21 22 21 21 20 19 19 19
5 1 0 4 5 6 6 5 4 5 6 6 8 8 6 7 8 7 4 4 4 4 2 5 10 8 4 2 3 2 2 3 5 7 6 4 4 5 6 5 5 6 6 5 5 4 4 5 8 8 7 7 9 9 10 10 10 11 12 12 12 12 11 11 12 14 14 13 13 13 15 16 15 15 15 17 19 20 21 22 22 22 22 21 20 20
4 2 0 4 5 5 5 4 4 6 8 8 9 10 8 6 7 7 5 5 5 5 5 8 11 8 5 3 5 5 6 8 9 7 3 1 3 5 7 6 6 6 6 4 4 4 4 5 7 7 6 7 8 8 8 10 11 12 13 14 14 14 14 14 15 16 15 13 12 12 13 15 16 16 16 16 17 19 20 21 22 22 22 22 21 21
4 4 1 4 5 1 3 2 3 4 8 10 10 11 10 7 5 4 4 5 3 1 3 6 7 3 2 2 6 7 8 11 9 5 3 2 3 5 7 7 6 7 6 5 5 4 3 4 6 6 6 7 7 8 9 10 10 11 13 14 15 16 17 17 18 18 16 14 12 12 13 14 15 16 17 17 18 18 19 20 21 22 22 23 23 23
3 5 3 3 4 3 4 1 3 4 6 6 6 7 6 2 3 4 5 7 5 1 1 3 3 3 0 3 7 8 9 10 8 5 3 3 4 4 4 5 6 5 4 4 4 4 5 5 6 6 6 7 7 7 8 8 8 9 11 12 14 15 17 18 20 20 18 15 14 13 13 14 14 16 17 18 18 18 18 19 20 21 22 23 23 24
3 5 3 2 3 4 3 4 5 5 3 3 4 2 1 1 6 8 6 7 8 5 4 4 4 4 4 6 8 8 8 7 5 4 4 4 5 5 5 5 5 4 5 5 4 5 5 4 6 6 5 6 6 6 7 8 8 10 11 12 14 15 17 19 20 21 18 16 16 15 14 14 15 16 18 19 19 19 19 19 20 21 21 22 23 24
4 4 2 2 3 3 1 5 4 1 3 6 5 1 3 4 8 11 7 6 9 8 6 8 7 6 7 7 7 8 7 4 3 4 6 6 5 4 5 6 6 6 5 5 4 4 4 4 4 4 5 6 7 8 9 10 11 13 14 15 17 18 19 20 21 20 19 18 17 16 15 15 16 17 19 19 20 20 19 19 20 20 20 21 22 24
5 4 3 2 2 2 2 4 1 3 4 3 2 2 1 1 4 7 6 6 7 6 4 7 6 5 7 8 6 7 5 1 3 3 3 3 1 1 2 3 3 3 2 2 1 1 2 2 4 6 7 8 9 10 11 12 13 14 15 16 18 19 20 21 21 20 19 19 18 17 17 16 17 17 18 19 19 20 20 20 20 20 20 20 22 24
6 5 3 2 1 3 3 3 2 1 2 3 3 3 1 1 2 2 2 2 4 5 3 6 6 5 6 7 5 3 2 0 3 4 3 2 2 2 3 4 5 5 5 4 2 1 2 3 5 7 8 9 10 10 11 12 12 13 15 16 17 18 18 18 19 19 20 20 19 19 19 18 18 17 17 18 18 19 20 20 20 20 19 20 22 24
5 4 5 4 2 3 5 3 2 1 2 4 4 4 1 0 1 3 4 1 4 3 3 5 6 6 5 6 5 3 1 2 2 4 4 3 4 5 6 9 9 6 4 3 3 3 4 6 8 9 10 10 10 10 11 13 14 14 16 16 16 16 16 17 18 19 21 21 21 21 20 19 18 18 18 18 18 19 19 20 20 20 20 21 22 23
8 4 4 6 3 2 5 4 3 2 3 4 5 5 4 3 1 4 5 2 4 2 2 4 5 5 5 5 5 4 3 2 2 4 4 4 5 4 5 8 9 6 6 5 5 6 7 8 9 10 10 10 12 13 13 15 15 15 15 15 15 15 17 18 19 20 21 21 22 22 21 20 19 19 18 19 19 19 19 19 20 21 21 21 21 23
7 5 5 5 3 2 4 3 1 2 2 2 4 5 5 4 2 5 3 4 4 2 2 3 5 4 4 4 3 3 3 3 3 3 4 4 5 4 3 4 6 8 8 8 8 8 8 8 9 10 10 12 13 13 13 13 13 13 13 14 15 17 19 19 20 20 20 20 21 21 21 21 21 21 20 20 19 19 18 18 20 21 22 21 21 22
4 4 3 4 3 2 4 3 0 1 2 2 4 6 6 3 3 3 2 5 3 1 1 2 3 2 2 3 3 2 1 2 3 3 5 5 4 5 6 7 7 8 9 9 9 9 8 8 10 11 11 12 12 13 13 13 14 14 14 14 16 18 19 20 20 20 19 20 20 21 22 22 22 22 22 21 19 19 19 19 19 20 21 21 21 21
3 3 2 2 2 2 3 3 1 1 3 2 4 6 4 1 2 3 4 3 3 3 2 3 2 1 2 4 3 1 1 3 2 3 4 4 4 5 8 10 10 10 9 9 10 10 10 9 11 11 11 12 13 14 15 15 15 15 15 16 18 19 20 21 22 21 20 20 20 21 22 23 23 23 23 22 20 20 20 20 20 20 19 19 19 20
2 2 1 0 1 1 3 3 2 1 3 3 4 3 2 2 4 4 1 3 3 3 3 4 3 2 3 4 3 2 3 4 5 4 4 4 5 5 8 10 10 10 11 11 11 12 11 10 11 11 12 14 15 16 16 16 16 16 17 18 19 21 22 24 24 23 22 20 20 21 22 23 23 23 22 21 20 20 20 20 20 19 19 18 18 19
2 2 2 2 1 2 3 1 2 4 4 4 2 2 1 0 3 4 3 3 2 2 3 3 3 2 2 4 3 3 4 4 4 4 4 5 5 7 9 10 11 11 12 12 12 12 11 11 11 12 13 16 17 16 15 16 17 17 18 19 21 23 24 25 25 24 22 20 20 21 23 23 23 22 21 21 20 20 19 19 18 18 18 18 17 18
0 1 3 2 1 2 4 4 4 4 4 4 3 4 2 1 2 4 5 4 3 2 1 3 3 3 2 3 3 4 4 4 3 3 3 3 4 6 7 8 10 11 11 12 13 13 13 13 13 14 15 17 18 16 15 16 18 18 18 20 22 23 25 25 24 23 22 21 20 21 23 24 22 21 21 20 19 18 18 18 18 19 18 18 17 17
1 1 2 3 2 1 2 1 1 1 3 4 4 3 4 4 3 4 5 4 3 1 2 3 4 4 4 4 4 4 4 3 3 3 3 3 4 6 7 8 10 11 12 13 14 13 14 14 14 15 16 18 19 17 15 16 18 18 18 20 21 22 24 25 23 22 22 21 21 22 24 24 22 21 21 20 19 18 18 18 19 20 19 18 17 17
2 1 3 4 3 2 1 1 2 3 3 3 4 4 5 5 4 4 5 4 3 3 4 4 4 4 4 4 5 4 3 3 3 3 3 3 4 7 8 10 11 13 14 14 13 14 14 15 15 15 16 17 18 17 16 17 18 18 18 19 20 22 24 24 22 22 21 20 21 23 24 23 21 20 21 21 19 18 19 20 20 20 19 18 17 19
2 4 4 3 3 2 2 2 1 2 2 2 3 4 4 5 5 5 5 5 5 5 5 5 5 4 4 3 4 4 3 3 3 3 3 3 5 7 9 11 12 13 13 12 12 13 14 14 13 13 14 16 18 18 18 18 18 18 18 19 21 22 23 23 21 20 20 21 22 23 23 22 21 20 20 20 20 19 20 21 20 20 19 17 18 21
1 3 2 2 3 3 1 1 1 3 4 5 4 4 3 3 4 5 5 5 5 5 6 6 6 5 4 3 3 3 3 3 3 3 3 3 5 8 9 10 11 12 12 11 11 12 13 13 13 12 13 15 17 18 19 20 19 19 19 20 22 22 22 23 22 20 20 22 22 22 21 20 20 19 19 19 20 20 19 19 19 19 18 17 18 20
2 2 2 4 5 1 3 4 4 3 2 1 1 3 3 1 4 6 5 5 4 4 4 5 5 6 6 5 4 4 3 3 5 5 5 5 7 8 9 9 10 10 10 10 10 11 12 13 13 12 13 14 16 18 19 20 22 22 20 20 21 21 22 23 21 19 20 22 21 20 20 19 18 18 18 18 19 19 18 18 18 16 15 17 18 18
3 4 4 4 4 5 5 5 5 4 3 3 2 3 2 1 5 6 5 4 4 3 4 5 4 4 5 7 8 8 5 4 6 7 6 6 8 8 7 8 9 10 10 10 10 11 13 14 15 13 13 14 16 18 20 20 22 24 22 19 20 21 22 22 20 18 19 21 20 20 21 19 17 17 17 18 20 19 16 17 18 15 14 17 18 17
Wind_Direction
61 31 330 264 253 264 267 201 184 194 195 212 176 149 188 191 239 258 265 296 141 119 41 168 139 339 320 305 296 307 60 118 161 158 165 177 188 229 244 269 283 277 277 299 305 292 272 250 231 231 239 248 253 253 251 251 255 258 257 261 264 262 254 249 250 252 248 237 235 247 253 257 258 255 258 260 263 267 269 268 264 264 265 266 266 265
53 38 276 241 228 247 276 194 172 180 193 232 175 142 208 202 221 278 272 330 37 110 8 94 101 348 315 306 318 342 100 134 201 198 199 197 214 253 273 288 292 287 299 319 307 306 344 28 185 220 235 248 255 252 251 255 259 258 257 261 265 262 254 249 248 250 252 247 241 247 249 253 257 257 256 252 254 261 264 264 263 266 269 266 261 262
17 295 258 244 230 260 345 43 149 142 120 49 43 125 186 210 186 321 338 352 13 92 25 82 106 337 311 307 349 36 74 274 286 228 175 165 199 302 347 284 292 297 316 333 322 343 23 44 62 176 231 246 253 253 251 252 255 257 259 264 265 261 257 254 251 248 249 249 249 250 247 247 252 254 256 259 266 268 266 269 272 273 276 277 269 264
323 255 244 246 356 345 346 3 62 80 90 104 111 120 216 231 145 218 319 2 29 90 150 133 104 343 324 324 1 32 34 356 342 359 91 111 142 153 123 298 320 319 327 344 352 10 32 40 39 34 321 267 255 254 253 250 252 257 263 268 265 261 263 261 255 252 252 253 254 253 249 251 257 259 263 269 272 272 272 277 282 280 281 285 283 278
250 253 255 8 33 347 299 347 58 90 328 236 178 142 176 209 157 156 164 85 38 36 112 113 63 337 333 345 345 352 11 24 2 27 50 34 62 87 64 32 9 20 13 11 19 21 31 35 33 24 0 331 280 262 259 256 257 260 264 268 267 263 262 260 257 255 254 255 257 257 254 255 260 264 268 271 273 275 278 282 289 291 291 291 291 288
262 267 287 15 33 68 89 293 179 141 167 287 212 173 162 159 136 124 127 94 53 17 273 100 73 305 309 354 351 342 8 16 356 30 40 17 41 68 53 25 1 25 39 38 41 37 35 34 30 23 16 10 346 293 270 263 261 263 265 267 268 264 260 257 256 257 257 255 256 257 256 255 259 267 274 284 289 285 282 287 297 301 300 299 297 294
269 303 52 79 61 54 39 289 223 142 109 350 233 170 138 130 130 140 144 109 96 190 240 89 117 238 309 353 344 338 10 8 359 33 34 22 42 57 56 29 8 23 29 30 33 32 33 25 16 15 15 17 11 339 284 264 262 263 265 266 267 265 262 261 261 262 261 258 257 258 258 259 261 267 278 289 289 284 285 294 300 302 305 306 303 299
265 338 16 54 59 43 17 292 219 137 103 304 222 138 125 131 146 161 151 121 157 171 30 18 99 127 293 289 302 335 42 10 2 30 27 28 43 46 43 24 31 37 31 29 23 15 21 23 19 18 19 23 21 11 347 283 263 260 262 266 270 272 273 273 275 274 272 271 270 267 265 267 268 271 277 277 275 277 288 298 300 305 313 315 312 307
259 324 351 30 18 356 279 243 194 141 95 250 186 128 124 134 139 148 120 97 115 119 96 314 44 94 263 274 320 23 84 355 318 4 24 25 35 42 30 20 38 43 37 39 30 15 16 25 31 31 29 21 8 7 1 311 274 272 279 285 290 295 297 299 297 290 287 288 286 278 269 264 263 261 260 257 263 275 283 287 291 305 314 319 320 311
256 225 185 124 313 254 241 236 178 156 238 187 131 85 61 67 72 73 79 83 60 85 188 266 34 100 267 287 337 43 109 226 255 276 355 12 29 45 32 27 40 41 42 44 40 38 27 26 32 37 40 28 5 1 352 309 297 310 316 319 324 324 320 321 323 315 306 296 283 276 270 262 256 253 249 249 256 268 274 276 277 290 308 324 328 316
288 290 170 167 204 207 223 237 177 178 208 119 100 65 55 44 40 48 40 71 64 8 252 269 354 105 289 287 253 157 201 210 200 198 92 75 61 52 39 38 45 45 49 47 49 52 38 29 30 36 43 41 33 24 14 354 335 335 330 323 325 327 323 320 317 312 304 292 278 270 268 265 260 257 255 251 251 258 273 288 301 324 346 4 358 339
325 333 237 251 225 177 177 258 214 46 66 98 88 78 82 26 14 34 358 39 78 282 267 279 313 97 107 272 268 281 283 252 187 169 149 117 83 60 52 48 53 58 56 52 52 41 23 19 21 27 32 34 41 44 40 31 6 352 341 334 338 342 339 329 317 306 293 284 275 267 266 268 265 261 257 254 253 257 275 312 336 348 355 6 7 349
319 280 286 311 265 165 129 327 326 358 34 70 62 69 85 23 13 37 338 21 108 253 258 274 298 82 211 246 267 296 300 281 228 164 142 127 103 87 70 54 56 68 66 57 53 39 15 6 4 11 14 18 27 34 38 40 36 31 21 9 12 17 24 29 15 342 300 279 268 257 254 257 257 256 255 262 283 302 336 350 351 349 341 337 338 313
325 308 334 346 321 154 127 129 303 331 21 63 86 97 94 77 64 29 274 306 273 251 245 256 257 352 298 272 271 295 309 303 141 99 109 114 105 104 84 62 51 57 68 72 63 49 26 10 3 5 6 10 15 22 34 43 48 49 45 39 35 42 56 57 45 20 302 270 258 254 256 263 264 261 262 284 318 336 338 327 318 314 308 292 282 285
54 309 323 339 306 8 103 161 169 151 109 110 151 134 125 141 141 181 203 179 205 240 277 296 285 144 237 277 299 313 342 37 90 98 97 95 101 112 84 60 44 36 49 72 75 61 35 17 12 9 9 11 12 21 32 39 45 50 51 50 47 51 67 73 62 38 16 356 285 276 282 284 277 268 274 304 327 335 334 326 319 317 317 312 309 308
111 256 272 276 264 21 46 188 154 108 87 240 126 85 45 183 138 125 166 170 167 161 345 337 273 196 215 271 323 17 34 50 82 98 96 93 99 97 73 53 44 29 22 41 59 53 31 25 24 22 18 15 17 26 35 38 42 48 51 53 52 53 63 61 41 25 19 23 21 347 314 304 303 304 321 335 334 335 334 327 323 322 321 316 314 315
54 295 287 315 337 62 70 222 141 104 148 303 55 76 247 179 120 114 147 53 84 109 354 338 278 297 316 305 342 47 50 52 83 99 101 102 99 87 71 51 42 29 17 26 35 28 24 28 30 32 29 24 24 31 39 41 43 48 51 53 55 56 56 46 35 31 30 33 30 12 352 349 357 2 5 4 356 349 341 333 327 322 320 320 320 322
101 310 293 347 21 340 311 70 45 60 126 100 102 182 193 117 95 100 107 17 43 113 277 319 270 286 315 284 279 94 121 167 137 113 104 96 90 85 73 59 43 31 26 16 17 30 33 30 28 32 35 32 31 34 40 43 47 54 56 54 54 52 48 44 41 40 39 40 40 31 22 16 14 14 15 14 11 5 357 347 338 333 333 333 330 329
99 343 292 300 267 300 340 50 31 351 35 98 146 156 109 113 105 61 105 120 93 122 298 319 300 246 212 225 217 189 189 190 177 128 112 107 105 106 90 66 46 36 33 13 14 26 26 27 24 26 32 35 39 40 43 50 57 62 61 59 56 51 46 43 42 42 40 39 40 39 37 34 31 28 25 23 22 19 13 2 348 343 341 335 330 331
98 105 282 276 248 307 4 49 59 321 348 30 63 46 38 126 146 130 130 150 140 148 251 319 348 266 227 213 193 192 195 182 168 144 134 139 134 129 120 88 50 38 36 1 358 2 4 17 21 22 27 32 42 47 50 56 61 65 65 62 58 51 46 42 40 40 39 39 39 39 40 39 36 34 32 30 28 25 22 15 3 352 345 335 330 330
83 106 239 288 318 11 15 133 162 161 353 12 42 35 17 49 114 143 106 90 125 137 175 149 324 264 248 215 184 185 187 174 162 152 152 152 132 120 117 119 111 29 283 310 333 343 343 355 13 28 35 40 48 54 56 58 60 63 63 62 58 51 43 39 38 38 36 35 37 37 37 36 34 34 32 31 30 28 25 22 15 8 1 350 339 332
144 124 163 301 357 55 254 252 175 156 177 165 127 114 143 139 136 128 70 305 122 128 165 158 200 262 264 259 196 175 164 161 156 150 149 136 119 121 125 164 207 227 230 267 315 325 324 336 355 12 27 41 52 56 57 56 56 58 58 59 59 53 44 37 35 36 35 33 33 33 32 30 28 27 26 25 25 24 23 20 16 13 7 358 348 339
149 102 102 221 284 207 254 281 180 163 178 155 109 105 137 134 112 122 189 244 127 97 143 127 175 265 276 312 142 140 138 137 134 134 129 115 110 126 168 238 250 248 246 270 304 305 308 320 329 345 6 19 34 46 53 55 53 51 50 51 53 52 45 37 31 30 30 30 28 27 26 25 22 19 17 16 17 17 16 15 13 10 6 360 352 347
102 79 82 303 306 310 303 325 3 76 103 83 16 33 86 343 102 142 178 183 140 161 155 111 244 266 300 357 71 102 106 103 100 105 116 122 123 142 207 249 261 265 288 312 302 294 298 302 308 339 4 9 16 23 33 45 48 46 46 45 44 43 40 34 28 25 22 21 19 16 15 17 18 16 12 10 10 9 8 7 6 5 2 358 355 352
108 83 87 69 354 345 340 343 347 353 26 63 359 339 330 1 77 122 141 86 87 215 155 132 229 255 304 6 75 94 96 95 86 82 103 127 146 172 221 248 255 270 299 303 295 299 305 308 315 335 356 3 6 6 8 17 27 32 37 39 38 36 35 32 26 22 19 16 13 10 7 6 9 12 11 7 4 3 2 1 360 358 355 352 351 353
114 125 111 117 135 202 223 270 275 304 337 350 359 351 344 3 56 158 121 85 265 240 151 150 220 257 325 35 85 98 105 103 89 85 99 114 152 187 224 241 255 276 282 277 286 296 299 306 307 303 321 348 354 353 352 355 4 10 15 22 25 24 26 28 23 19 18 14 11 10 7 3 1 3 3 0 357 354 354 356 355 352 350 346 344 346
103 84 100 128 145 181 191 222 246 209 56 349 334 352 355 345 343 103 98 119 189 178 183 227 199 146 86 90 110 115 118 118 121 124 119 125 190 220 246 256 264 276 271 278 292 290 294 299 289 282 293 315 328 335 339 340 346 352 353 3 14 15 15 17 16 17 17 12 10 11 10 5 357 351 350 349 349 346 345 349 351 350 346 341 338 339
96 53 54 113 99 184 186 190 22 82 92 41 356 5 4 3 28 66 60 287 209 133 272 273 189 136 160 167 146 144 136 142 162 168 169 185 201 229 276 283 281 282 282 288 285 280 292 298 291 293 290 290 305 324 340 343 337 340 347 356 11 14 10 9 11 14 13 8 6 6 5 2 354 346 343 343 346 346 343 343 345 346 344 339 334 333
106 64 263 102 45 13 103 78 68 92 100 62 40 24 10 22 45 58 22 324 345 156 243 271 94 104 117 126 144 157 152 160 165 122 48 23 9 342 311 286 273 267 267 271 276 288 313 316 307 303 288 293 315 328 340 348 346 353 6 11 11 10 8 9 11 12 10 4 358 356 355 355 354 352 349 347 348 348 345 342 342 342 341 338 332 328
108 77 19 101 60 23 23 28 61 102 97 61 38 28 19 34 56 63 37 10 44 81 101 88 81 64 18 39 90 82 81 88 74 57 37 13 355 331 311 301 295 285 280 285 297 312 318 298 295 292 287 316 343 347 352 2 9 13 14 8 1 359 0 4 7 8 8 3 356 351 349 349 352 355 356 354 350 347 345 343 342 341 341 339 334 328
88 121 169 87 72 11 359 38 76 92 92 70 33 18 13 20 41 47 30 15 34 57 62 75 78 54 358 41 74 65 70 70 65 67 64 333 330 323 312 307 298 290 291 294 293 289 279 284 303 319 337 357 13 24 27 26 21 12 5 358 353 351 352 355 358 1 2 1 357 353 348 346 347 350 354 355 351 347 345 343 341 341 340 339 336 332
77 117 91 72 85 279 275 91 64 44 69 62 27 5 358 7 37 46 33 27 24 39 45 57 78 77 315 67 70 56 62 65 59 55 37 350 333 320 311 307 296 285 286 292 296 299 303 326 349 8 29 41 46 45 34 23 12 3 357 352 348 347 346 347 349 352 353 356 356 353 349 345 343 346 349 351 350 347 344 340 338 338 338 337 337 334
90 123 144 108 115 211 252 356 3 9 43 33 345 335 326 330 81 70 32 19 10 6 90 69 113 142 296 63 69 57 56 62 58 50 38 357 338 339 338 337 329 316 321 334 340 345 346 2 31 51 59 53 42 30 17 6 358 352 349 346 343 342 341 341 342 343 346 352 355 353 351 347 344 345 346 348 348 346 343 339 335 334 334 333 333 331
76 101 136 123 123 200 265 4 32 40 44 266 276 352 41 129 96 84 51 11 11 32 78 89 101 98 68 71 82 76 62 58 53 53 61 44 17 9 13 16 10 9 20 17 7 8 17 49 71 69 52 34 14 1 357 352 345 340 340 340 337 337 337 336 336 338 342 350 354 353 353 350 347 346 345 345 346 343 341 338 333 330 330 329 328 328
82 80 102 85 100 152 347 30 46 8 244 223 225 106 100 119 99 91 75 33 25 34 63 80 83 89 89 84 83 77 66 43 5 24 47 49 39 24 17 13 7 9 21 20 15 36 62 78 73 38 12 3 352 347 345 341 338 335 335 335 334 334 334 332 333 337 343 349 351 352 353 351 348 346 344 344 343 341 341 339 335 331 329 327 325 325
123 119 111 72 83 121 47 44 100 231 254 252 275 302 299 38 66 72 55 24 22 25 62 92 96 103 100 89 82 88 96 70 315 351 19 18 26 50 24 356 339 335 330 318 336 84 112 49 13 356 350 348 341 337 332 330 330 330 329 329 329 329 329 329 331 335 341 345 349 352 353 350 348 346 345 344 344 342 341 340 336 334 331 327 324 323
128 138 117 67 70 127 100 69 95 112 312 307 312 319 332 310 306 97 99 0 8 30 78 114 118 118 108 101 108 126 143 0 345 328 302 286 282 269 264 265 267 273 277 281 280 240 250 324 343 340 333 328 324 323 325 326 326 324 322 323 324 325 326 329 333 335 338 342 347 351 351 351 349 349 347 346 345 343 341 339 337 335 334 329 324 322
97 133 141 118 82 101 104 97 95 87 274 249 252 284 338 117 228 129 111 336 333 26 89 128 132 132 129 131 145 162 143 50 348 303 295 290 281 277 279 282 286 298 318 329 322 314 318 326 329 326 322 320 324 330 333 330 323 318 317 321 328 333 336 339 341 340 340 342 345 347 349 350 351 351 350 348 346 343 340 338 336 334 333 330 324 321
55 59 102 101 81 93 108 115 151 179 227 229 239 281 336 6 351 70 70 318 291 350 65 124 142 151 155 156 156 145 128 138 245 270 279 281 284 289 288 294 312 350 21 19 359 344 337 328 321 322 326 333 338 337 333 329 326 325 328 336 346 351 352 350 347 344 342 341 342 343 345 347 350 351 351 348 346 342 337 334 333 333 333 332 328 324
35 25 52 81 91 110 104 104 172 191 221 245 252 284 313 330 33 64 43 274 260 318 19 124 149 175 175 162 137 115 128 170 215 258 288 309 332 356 359 339 357 20 27 22 13 360 345 335 335 339 344 346 344 340 339 340 344 350 355 359 2 1 356 350 345 342 340 337 337 339 341 344 347 348 347 346 344 341 337 333 333 333 334 333 331 329
22 25 56 98 102 84 98 109 170 234 232 271 297 298 303 329 68 89 234 235 200 89 12 109 133 181 166 128 101 99 142 205 216 270 315 345 10 25 35 37 36 35 28 20 12 0 351 352 356 358 358 359 359 360 1 0 2 6 8 8 6 0 353 348 344 342 338 336 336 337 339 341 343 343 344 344 343 341 338 335 334 333 333 334 332 331
26 32 33 71 76 56 102 113 74 273 235 269 310 307 317 51 148 211 224 196 134 109 66 62 64 55 67 66 71 91 311 320 338 341 352 21 46 39 32 31 30 26 19 15 12 7 1 358 359 5 14 17 17 15 10 6 5 8 9 8 3 355 349 347 345 342 338 337 338 339 340 341 342 341 342 343 343 341 337 337 336 334 334 334 332 331
94 86 27 44 142 86 69 74 83 196 247 302 327 325 12 95 187 204 138 63 77 97 83 57 36 30 66 59 36 12 356 0 10 13 22 42 51 40 29 23 19 13 8 9 11 9 6 4 8 20 27 22 18 16 12 10 11 11 8 4 357 350 347 346 344 342 340 339 340 342 344 344 343 342 342 342 342 339 336 337 338 337 335 335 332 329
81 122 163 196 190 108 90 96 179 204 258 309 18 122 107 281 187 164 115 69 55 73 87 70 38 5 111 99 64 41 43 28 15 19 30 32 26 19 15 13 11 8 5 7 11 13 18 22 25 30 28 21 19 20 17 15 14 10 5 359 353 348 346 344 343 343 342 340 340 343 345 345 344 344 343 341 338 338 338 339 338 336 335 334 332 327
313 200 158 148 148 143 156 193 213 221 271 327 47 108 114 77 111 123 116 101 67 53 99 83 40 353 16 81 76 63 54 32 18 28 28 17 10 9 8 5 5 6 7 11 18 22 25 28 28 25 22 19 19 20 18 14 11 6 360 354 351 349 347 345 345 345 344 343 342 343 343 344 344 344 342 339 338 338 337 337 335 333 332 331 330 330
246 192 107 100 118 126 105 92 52 9 356 11 39 74 88 82 71 76 89 87 58 40 86 73 41 12 22 56 70 59 33 10 18 24 9 359 2 3 5 5 6 12 16 19 23 25 23 24 24 21 17 14 14 15 13 8 5 3 358 354 353 353 351 350 348 345 344 343 340 339 341 343 342 341 339 340 341 339 336 335 332 328 325 325 329 336
308 75 81 79 89 92 69 15 10 6 358 22 52 64 63 60 53 56 78 84 57 48 65 71 71 67 60 69 85 74 31 10 19 7 348 353 358 355 2 6 8 15 20 22 24 24 23 24 23 18 14 10 8 9 7 2 1 3 0 356 354 352 350 349 347 342 340 339 337 338 342 342 340 338 339 342 343 340 339 341 337 329 326 327 333 341
352 68 84 81 71 96 194 232 352 26 1 3 54 84 76 61 52 47 64 83 79 70 71 72 77 83 71 70 97 95 49 20 14 348 334 350 360 358 2 8 11 16 23 26 27 25 24 24 21 15 12 9 8 7 4 1 0 0 358 355 354 352 349 347 344 339 336 336 336 339 344 345 342 340 340 342 344 342 342 344 340 334 333 338 343 347
10 54 101 116 75 64 160 196 89 60 27 2 19 51 53 63 78 70 65 75 80 77 73 64 63 76 89 101 123 111 68 17 359 358 354 357 3 4 7 13 17 19 23 27 27 25 25 22 17 13 10 9 9 8 5 4 2 358 354 354 354 353 350 346 343 339 337 337 337 340 346 348 345 342 340 341 344 346 346 346 342 337 339 347 350 349
55 91 135 114 101 135 215 190 155 122 99 292 345 27 17 70 114 97 85 82 81 89 94 77 59 61 68 68 65 66 55 7 1 13 16 9 9 12 15 19 19 19 23 23 18 18 21 18 13 10 7 5 6 4 1 1 2 360 356 356 355 352 348 346 343 340 340 340 339 345 352 349 343 342 341 341 344 345 344 346 348 347 345 348 350 349
139 164 166 137 152 216 220 181 154 129 140 196 251 357 354 162 118 99 97 101 97 97 99 88 66 43 32 32 38 42 34 12 13 19 17 14 17 24 26 21 17 17 19 17 12 12 14 13 10 6 2 0 1 359 355 355 358 359 358 358 356 352 348 347 344 341 342 341 340 348 355 350 342 343 344 344 347 346 339 339 347 352 351 350 355 359